Showing default

HULIANWANG DIGUI-02, 62324

Orbit data source: Space-Track

HULIANWANG DIGUI-02, 62324 is a payload satellite owned by Zhongguo Xingwang (CN) in LEO that was launched on Mon, 16 Dec 2024 UTC via a CHANG ZHENG 5B/YZ-2 launch vehicle from the Wenchang Satellite Launch Center (WSC). Payload-class satellites include a variety of spacecraft equipped with specific instruments for various scientific and technological missions. These include communications satellites like Starlink; space stations such as the ISS; scientific satellites like the Hubble; Earth observation satellites from companies like Planet Labs, Umbra, and HawkEye 360; GPS; miniature CubeSats for education and research; and military/defense satellites.

Loading next visibility...
Identifier
62324, 2024-240B
Orbit
LEO
Country
Flag of CNCN / PRC
Related business
Manufacturer
CAST?
Mission
Operational Civil Communications
Bus & Motor
XINGWANG CL, Unknown motor
Mass
~800 kg wet, ~800 kg dry
Launch date (UTC)
2024-12-16 (1 year ago)
Launch vehicle
CHANG ZHENG 5B/YZ-2
Launch site
Wenchang Satellite Launch Center (WSC)
Object type
Payload
Rocket body
Debris
Shape & HBR
Box + 2 Pan, 5.0 m
Radar Cross Section
5.935 m², Large (>1 m²)

Expand to show TLE details & history
Last TLE update: 4 hours ago

TLE from 4 hours ago
0 HULIANWANG DIGUI-02
1 62324U 24240B   26061.86056070  .00000014  00000-0 -14424-5 0  9992
2 62324  86.5054  19.2130 0001843  90.2426 269.8919 13.24421925 58574
Epoch: 2026-03-02T20:39Z
TLE epoch observation values (Epoch: 2026-03-02T20:39:12.444Z)
Latitude
-0.00005°
Longitude
-91.23676°
Altitude
1,170.774 km
Speed
7.268 km/s
True Right ascension
01h 16m 51s
True Declination
0° 00' 00"
Sunlit
Object was in daylight at epoch
Visualization orbit readout
Latitude
Unknown
Longitude
Unknown
Altitude
Unknown
Speed
Unknown
Apparent Right ascension
Unknown
Apparent Declination
Unknown
Sunlit
N/A
Visualization observer readout
Local Sidereal Time
04:50:35
Azimuth
Unknown
Elevation
Unknown
Doppler factor
Unknown
Orbital elements
Apogee altitude
1,166.387 km
Perigee altitude
1,163.606 km
Semi-major axis
7,543.134 km
Eccentricity
0.00018
Inclination
86.5054°
RAAN
19.213°
Arg. of periapsis
90.2426°
True anomaly
269.87078°
Mean anomaly
269.8919°
Eccentric anomaly
269.88134°
Mean motion
3.31295 °/min
Orbital period
108.66 mins
BSTAR
-0.0000014424
Loading maneuver chart data...
Computing Atmospheric mass density...
Loading historical data...
Loading historical data...
Loading historical data...
Loading historical data...
Loading historical data...
Loading historical data...
Loading historical data...

Documentation

Showing up to 5 results
|